Flag for Switzerland Weather past 2 weeks in Schaffhausen, Schaffhausen, Switzerland

Now
42 °F

Overcast.


Feels Like: 34 °F
Forecast: 26 / 51 °F
Wind: 13 mph from Southwest

Location: Zurich-Kloten

Current Time: Apr 2, 2015 at 3:04:50 AM

Latest Report: Apr 2, 2015 at 2:00 AM


Visibility: 13 mi

Pressure: 30.28 "Hg

Humidity: 62%

Dew point: 29 °F

Location of SchaffhausenLocation

Historic Weather in Schaffhausen — Graph

°F

Schaffhausen temperature yesterday

Maximum temperature yesterday: 48 °F (at 12:00 AM)
Minimum temperature yesterday: 36 °F (at 7:00 AM)
Average temperature yesterday: 42 °F

Past Weeks' High & Low Weather Summary

 TemperatureHumidityPressure
High64 °F (Mar 18, 4:00 PM)100% (Mar 20, 5:00 PM)30.34 "Hg (Mar 20, 5:00 PM)
Low29 °F (Mar 28, 5:00 AM)31% (Mar 18, 4:00 PM)29.58 "Hg (Mar 25, 2:00 PM)
Average46 °F73%30.02 "Hg
* Reported Midnight between Mar 17 and Mar 18 — Apr 2 1:00 AM, Schaffhausen, Weather by CustomWeather, © 2015

Note: Actual official high and low records may vary slightly from our data, if they occured in-between our weather recording intervals... More about our weather records

Advertising

Schaffhausen weather history for previous 24 hours

 ConditionsComfort  
Time TempWeatherWind HumidityBarometerVisibility
1:00 AM
Thu, Apr 2
41 °FQuite cool.12 mph67%30.30 "HgN/A
12:00 AM41 °FQuite cool.12 mph66%30.31 "HgN/A
10:00 PM
Wed, Apr 1
43 °FQuite cool.13 mph53%30.32 "HgN/A
9:00 PM42 °FQuite cool.9 mph59%30.32 "HgN/A
8:00 PM42 °FPassing clouds.12 mph56%30.30 "Hg19 mi
7:00 PM43 °FQuite cool.12 mph52%30.28 "HgN/A
6:00 PM44 °FQuite cool.14 mph57%30.26 "HgN/A
5:00 PM45 °FPartly sunny.13 mph57%30.25 "Hg19 mi
4:00 PM42 °FQuite cool.23 mph62%30.26 "HgN/A
3:00 PM44 °FQuite cool.15 mph63%30.24 "HgN/A
2:00 PM39 °FPartly sunny.18 mph78%30.27 "Hg16 mi
1:00 PM41 °FQuite cool.16 mph74%30.25 "HgN/A
12:00 PM39 °FChilly.12 mph88%30.25 "HgN/A
11:00 AM43 °FQuite cool.15 mph70%30.22 "HgN/A
10:00 AM40 °FQuite cool.16 mph68%30.22 "HgN/A
9:00 AM42 °FQuite cool.17 mph62%30.18 "HgN/A
8:00 AM40 °FScattered clouds.14 mph69%30.16 "Hg12 mi
7:00 AM36 °FChilly.22 mph86%30.19 "HgN/A
6:00 AM39 °FChilly.8 mph77%30.13 "HgN/A
5:00 AM38 °FOvercast.23 mph81%30.14 "Hg19 mi
4:00 AM43 °FQuite cool.14 mph69%30.11 "HgN/A
3:00 AM41 °FQuite cool.22 mph75%30.12 "HgN/A
Weather by CustomWeather, © 2015

See weather overviewHow to use our weather pages